DW9227 Weather Reports


Display with metric or nautical units.
time (UTC)temp
F
wind
direction
speed
MPH
gust
MPH
rain 1hr
in
rain 24hr
in
rain mn
in
humidity
%
barometer
mb
20260507144538 69 149 2.0 10.0 0.00 0.01 0.00 56 1012.3
20260507143055 69 143 1.0 13.0 0.00 0.01 0.00 55 1012.3
20260507141553 69 141 0.0 14.0 0.00 0.01 0.00 57 1012.4
20260507140036 69 136 2.0 10.0 0.00 0.01 0.00 57 1012.4
20260507134534 69 99 0.0 11.0 0.00 0.01 0.00 56 1012.6
20260507133035 68 123 0.0 13.0 0.00 0.01 0.00 58 1012.8
20260507131538 68 119 2.0 10.0 0.00 0.01 0.00 57 1012.8
20260507130039 68 65 1.0 11.0 0.00 0.01 0.00 57 1012.9
20260507124528 68 138 1.0 14.0 0.00 0.01 0.00 57 1013.1
20260507123027 68 146 2.0 11.0 0.00 0.01 0.00 58 1013.0
20260507121527 68 93 0.0 10.0 0.00 0.01 0.00 58 1013.2
20260507120025 67 126 2.0 17.0 0.00 0.01 0.00 58 1013.4
20260507114528 67 132 2.0 9.0 0.00 0.02 0.00 60 1013.4
20260507113024 67 128 0.0 10.0 0.00 0.02 0.00 60 1013.5
20260507111523 67 94 2.0 9.0 0.00 0.02 0.00 59 1013.6
20260507110022 67 43 1.0 10.0 0.00 0.02 0.00 61 1013.8
20260507104522 67 105 1.0 11.0 0.00 0.02 0.00 61 1013.9
20260507103018 66 134 2.0 12.0 0.00 0.02 0.00 60 1014.0
20260507101518 66 138 1.0 8.0 0.00 0.02 0.00 62 1014.2
20260507100016 66 103 1.0 10.0 0.00 0.02 0.00 62 1014.4
20260507094515 65 111 0.0 8.0 0.00 0.03 0.00 63 1014.5
20260507093013 65 63 0.0 8.0 0.00 0.03 0.00 61 1014.5
20260507091514 64 69 1.0 6.0 0.00 0.03 0.00 61 1014.4
20260507090008 63 250 0.0 4.0 0.00 0.03 0.00 66 1014.5
20260507084505 62 258 0.0 4.0 0.00 0.25 0.00 64 1014.5
20260507083102 61 263 0.0 3.0 0.00 0.25 0.00 62 1014.5
20260507081602 60 263 0.0 0.0 0.00 0.25 0.00 60 1014.6
20260507080104 58 263 0.0 0.0 0.00 0.25 0.00 62 1014.7
20260507074551 56 263 0.0 1.0 0.00 0.56 0.00 63 1014.7
20260507073050 56 263 0.0 1.0 0.00 0.56 0.00 63 1014.7
20260507071546 55 263 0.0 1.0 0.00 0.56 0.00 67 1014.8
20260507070044 53 263 0.0 0.0 0.00 0.56 0.00 71 1014.7
20260507064600 52 263 0.0 2.0 0.00 0.72 0.00 77 1014.8
20260507063037 50 263 0.0 0.0 0.00 0.72 0.00 79 1014.8
20260507061535 49 263 0.0 0.0 0.00 0.72 0.00 81 1014.8
20260507060033 48 263 0.0 0.0 0.00 0.72 0.00 81 1014.7
20260507054532 47 263 0.0 0.0 0.00 0.91 0.00 84 1014.8
20260507053031 47 263 0.0 0.0 0.00 0.91 0.00 85 1014.5
20260507051529 47 263 0.0 0.0 0.00 0.91 0.00 85 1014.3
20260507050038 47 263 0.0 1.0 0.00 0.91 0.00 84 1014.2
20260507044526 47 263 0.0 4.0 0.00 0.99 0.00 84 1014.0
20260507043024 46 263 0.0 0.0 0.00 0.99 0.00 86 1013.7
20260507041526 47 263 0.0 0.0 0.00 0.99 0.00 87 1013.5
20260507040019 47 263 0.0 0.0 0.00 0.99 0.00 87 1013.5
20260507034519 47 263 0.0 0.0 0.00 0.99 0.00 87 1013.4
20260507033020 47 263 0.0 0.0 0.00 0.99 0.00 86 1013.4
20260507031516 47 263 0.0 0.0 0.00 0.99 0.00 86 1013.4
20260507030024 48 263 0.0 0.0 0.00 0.99 0.00 84 1013.4
20260507024517 48 263 0.0 0.0 0.00 0.99 0.00 83 1013.3
20260507023011 48 263 0.0 0.0 0.00 0.99 0.00 84 1013.3
20260507021511 48 263 0.0 0.0 0.00 0.99 0.00 86 1013.4
20260507020009 48 263 0.0 0.0 0.00 0.99 0.00 86 1013.4
20260507014511 48 263 0.0 0.0 0.00 0.99 0.00 85 1013.2
20260507013011 49 263 0.0 0.0 0.00 0.99 0.00 85 1013.1
20260507011505 49 263 0.0 0.0 0.00 0.99 0.00 86 1013.0
20260507010004 49 263 0.0 0.0 0.00 0.99 0.00 85 1013.0
20260507004501 49 263 0.0 0.0 0.00 0.99 0.00 85 1012.9
20260507003059 49 263 0.0 0.0 0.00 0.99 0.00 85 1012.9
20260507001608 49 263 0.0 0.0 0.00 0.99 0.00 86 1012.8
20260507000056 49 263 0.0 0.0 0.00 0.99 0.00 86 1012.5
20260506234559 50 263 0.0 0.0 0.00 0.99 0.00 87 1012.3
20260506233055 50 263 0.0 0.0 0.00 0.99 0.00 87 1012.3
20260506231607 50 263 0.0 0.0 0.00 0.99 0.00 87 1012.4
20260506230105 50 263 0.0 0.0 0.00 0.99 0.00 86 1012.4
20260506224548 51 263 0.0 0.0 0.00 0.99 0.00 87 1012.5
20260506223046 51 263 0.0 0.0 0.00 0.99 0.00 88 1012.5
20260506221602 51 263 0.0 0.0 0.00 0.99 0.00 88 1012.5
20260506220055 51 263 0.0 0.0 0.00 0.99 0.00 88 1012.5
20260506214544 51 263 0.0 0.0 0.00 0.99 0.99 87 1012.2
20260506213055 52 263 0.0 0.0 0.00 0.99 0.99 87 1012.1
20260506211540 52 263 0.0 0.0 0.00 0.99 0.99 86 1012.0
20260506210051 52 263 0.0 0.0 0.00 0.99 0.99 85 1011.9
20260506204540 53 263 0.0 0.0 0.00 0.99 0.99 84 1011.8
20260506203039 53 263 0.0 0.0 0.00 0.99 0.99 85 1011.5
20260506201545 54 263 0.0 0.0 0.00 0.99 0.99 84 1011.4
20260506200038 54 263 0.0 0.0 0.00 0.99 0.99 84 1011.1
20260506194537 55 263 0.0 0.0 0.00 0.99 0.99 83 1010.7
20260506193037 56 263 0.0 0.0 0.00 0.99 0.99 82 1010.4
20260506191536 57 263 0.0 0.0 0.00 0.99 0.99 80 1010.1
20260506190035 57 263 0.0 0.0 0.00 0.99 0.99 79 1009.9
20260506184538 58 263 0.0 0.0 0.00 1.00 0.99 78 1009.6
20260506183035 58 263 0.0 0.0 0.00 1.00 0.99 77 1009.3
20260506181535 59 263 0.0 0.0 0.00 1.00 0.99 75 1009.0
20260506180038 59 263 0.0 0.0 0.00 1.00 0.99 74 1008.7
20260506174534 60 263 0.0 0.0 0.00 1.00 0.99 72 1008.5
20260506173031 60 263 0.0 0.0 0.00 1.00 0.99 70 1008.2
20260506171539 60 286 0.0 0.0 0.00 1.00 0.99 69 1007.9
20260506170029 61 286 0.0 7.0 0.00 1.00 0.99 68 1008.0
20260506164529 62 291 0.0 4.0 0.00 1.00 0.99 65 1007.8
20260506163030 63 287 1.0 8.0 0.00 1.00 0.99 62 1007.7
20260506161530 64 286 0.0 9.0 0.00 1.00 0.99 64 1007.8
20260506160029 63 280 0.0 5.0 0.00 1.00 0.99 68 1008.2
20260506154526 62 279 0.0 4.0 0.00 1.00 0.99 70 1008.5
20260506153025 62 279 0.0 0.0 0.01 1.00 0.99 71 1008.6
20260506151526 60 279 0.0 0.0 0.01 1.00 0.99 72 1008.6
20260506150027 59 279 0.0 0.0 0.01 1.00 0.99 74 1008.9